DUBAISAT-1

Last updated on Sun Dec 14 2025 00:02:31 GMT+0000 (Coordinated Universal Time)

1 35682U 09041B 25347.33718193 .00002282 00000+0 34970-3 0 9993 2 35682 97.9784 118.0079 0009522 312.5561 47.4843 14.74607844877701
UTC large
Height (km)
Speed (km/s)
/
Latitude / Longitude
Inclination (degrees)
Orbital Period (minutes)
Azimuth
Elevation
Range (km)
Doppler Factor

Next 0 passes for location: London (51.5072 / 0.1276)

Sorry there are no passes over London.